Regional Weather Roundup
Issued by NWS State College, PA

Home | Current Version | Previous Version | Graphics & Text | Print | Product List | Glossary Off
Versions: 1 2 3 4 5 6 7 8 9 10 11 12 13 14 15 16 17 18 19 20 21 22 23 24 25 26 27 28 29 30 31 32 33 34 35 36 37 38 39 40 41 42 43 44 45 46 47 48 49 50

000
ASUS41 KCTP 301510
RWRCTP

REGIONAL WEATHER ROUNDUP
NATIONAL WEATHER SERVICE STATE COLLEGE PA
1100 AM EDT TUE JUN 30 2015

Note: "fair" indicates few or no clouds below 12,000 feet with no
significant weather and/or obstructions to visibility.

* = STATION THAT DOES NOT REPORT PRECIPITATION /E.G. RAIN...SNOW...ETC/
    THUNDER OR FOG.

PAZ002>004-007>009-013>016-020>023-029>032-301600-
WESTERN PENNSYLVANIA

CITY           SKY/WX    TMP DP  RH WIND       PRES   REMARKS
ERIE           CLOUDY    68  61  78 SW7       29.82F
MEADVILLE      CLOUDY    67  61  81 SW8       29.85S HAZE
FRANKLIN*      CLOUDY    68  59  73 SW12      29.88R
NEW CASTLE     PTSUNNY   71  64  78 VRB5      29.87S
BEAVER COUNTY  LGT RAIN  68  63  83 SW6       29.87F
BUTLER*        CLOUDY    70  63  78 SW8       29.89S
PITTSBURGH INT PTSUNNY   70  63  78 SW7       29.87F
PITTSBURGH     CLOUDY    68  61  78 S10       29.88S
INDIANA*       CLOUDY    68  64  88 SW7       29.92S
LATROBE        PTSUNNY   72  68  88 SW12      29.90S
WASHINGTON CO* NOT AVBL
$$

PAZ004>006-010>012-017>019-024>028-033>037-041-042-045-046-049>053-301600-
CENTRAL PENNSYLVANIA

CITY           SKY/WX    TMP DP  RH WIND       PRES   REMARKS
BRADFORD       CLOUDY    62  60  93 VRB7      29.88S FOG
DUBOIS         CLOUDY    68  62  81 SW10      29.88S
CLEARFIELD     CLOUDY    66  63  90 VRB3      29.90S
JOHNSTOWN      CLOUDY    67  61  81 SW6       29.92S
ALTOONA        CLOUDY    70  63  78 S7        29.91S
STATE COLLEGE  CLOUDY    68  63  83 S5        29.90S
WILLIAMSPORT   CLOUDY    71  64  78 SE5       29.87S
SELINSGROVE    CLOUDY    72  67  84 SW3       29.90S
FT INDIANTOWN  CLOUDY    68  66  94 NE3       29.91S
CAPITAL CITY   CLOUDY    76  66  71 S9        29.89F
HARRISBURG     CLOUDY    76  67  73 S9        29.89F
YORK           CLOUDY    76  68  76 S8        29.90F
$$

PAZ038>040-043-044-047-048-054-055-060>062-067>071-301600-
EASTERN PENNSYLVANIA

CITY           SKY/WX    TMP DP  RH WIND       PRES   REMARKS
SCRANTON       CLOUDY    70  62  76 CALM      29.93R
MOUNT POCONO   LGT RAIN  61  59  93 SE7       29.99R FOG
ALLENTOWN      LGT RAIN  73  63  70 SE6       29.93F
QUAKERTOWN*    CLOUDY    73  66  78 S5        29.95S
READING        PTSUNNY   72  66  81 S5        29.92R
LANCASTER      CLOUDY    73  69  87 S6        29.92S
COATESVILLE    PTSUNNY   73  68  83 S6        29.95R
POTTSTOWN      PTSUNNY   76  69  79 VRB3      29.94F
BLUE BELL      PTSUNNY   81  68  65 S9G17     29.93S
DOYLESTOWN     MOSUNNY   76  64  66 S10G17    29.93F
WILLOW GROVE   NOT AVBL
NORTH PHILA    MOSUNNY   82  62  50 S7        29.95F
PHILADELPHIA   PTSUNNY   82  63  52 S16       29.93F
$$



USA.gov is the U.S. government's official web portal to all federal, state and local government web resources and services.